Welcome to the New NWS' Forecast!
Most changes are behind the scenes, but click here for differences you might notice.
Latest weather observations around

San Francisco, San Francisco International Airport (KSFO)

Using English Units (Switch to International System of Units)
Date/ Time (PDT) Wind (mph) Vis. (mi) Weather Sky Cond. Temp (°F) Rel. Humidity Wind Chill (°F) Heat Index (°F) Pressure Precip. (in)
Air Dwpt 6 hour Altimeter (inHg) Sea level (inHg) 1 hr 3 hr 6 hr
Max Min
Jul 28 04:56   10 Mostly Clear FEW007 58 53     84%     29.89 29.89      
Jul 28 03:56 WNW 13 10 Mostly Clear FEW007 57 53     87%     29.89 29.89      
Jul 28 02:56 WNW 11 10 Mostly Clear FEW007 58 53     84%     29.9 29.89      
Jul 28 01:56 WNW 13 10 Mostly Clear FEW006 58 53     84%     29.9 29.9      
Jul 28 00:56 WNW 11 10 Mostly Clear FEW006 59 53     81%     29.91 29.91      
Jul 27 23:56 WNW 14 10 Mostly Clear FEW006 59 53     81%     29.91 29.91      
Jul 27 22:56 WNW 15 10 Mostly Clear FEW005 60 53     78%     29.92 29.91      
Jul 27 21:56 WNW 16 10 Mostly Clear FEW005 61 53     75%     29.91 29.91      
Jul 27 20:56   10 Mostly Clear FEW005 60 53     78%     29.9 29.9      
Jul 27 19:56 NW 16 10 Mostly Clear FEW005 63 54     72%     29.89 29.89      
Jul 27 18:56   10 Mostly Clear FEW006 65 54     68%     29.89 29.89      
Jul 27 17:56 WNW 17 10 Mostly Clear FEW005 66 54     65%     29.89 29.88      
Jul 27 16:56   10 Mostly Clear FEW006 68 54     61%     29.9 29.9      
Jul 27 15:56 WNW 20 10 Mostly Clear and Windy FEW008 70 53     55%     29.91 29.91      
Jul 27 14:56 WNW 17 10 Mostly Clear FEW008 76 54     47%   75 29.94 29.93      
Jul 27 13:56 WNW 11 10 Mostly Clear FEW010 67 54     63%     29.95 29.95      
Jul 27 12:56 WNW 11 10 Mostly Clear FEW010 66 54     65%     29.97 29.96      
Jul 27 11:56 NW 13 10 Mostly Clear FEW010 66 54     65%     29.99 29.98      
Jul 27 10:56 NNW 10 9 Mostly Clear FEW008 63 53     70%     30 29.99      
Jul 27 09:56 N 6 9 Mostly Clear FEW008 60 53     78%     30 30      
Jul 27 08:59 NW 6 10 Partly Cloudy SCT008 60 53     78%     30.01        
Notice The following observation data may not be complete
Jul 27 08:56 5 10 Cloudy OVC008          %     30.01 30.01      
Jul 27 03:56 WNW 9 10 Mostly Clear FEW005 60 52     75%     29.99 29.98      
Jul 27 02:56 WNW 9 10 Mostly Clear FEW003 59 52     78%     29.99 29.99      
Jul 27 01:56 WNW 10 10 Mostly Clear FEW003 60 53     78%     30 29.99      
Jul 26 23:56 WNW 13 10 Mostly Clear FEW004 59 53     81%     30.01 30      
Jul 26 22:56   10 Mostly Clear FEW003 57 54     89%     30 30      
Jul 26 21:56   10 Partly Cloudy SCT003 58 54     86%     30 29.99      
Jul 26 20:56   10 Mostly Clear FEW003 60 53     78%     29.98 29.98      
Jul 26 19:56   10 Mostly Clear FEW004 61 53     75%     29.97 29.97      
Jul 26 18:56   10 Mostly Clear FEW005 65 53     65%     29.97 29.96      
Jul 26 17:56   10 Mostly Clear FEW007 67 54     63%     29.97 29.97      
Jul 26 16:56   10 Mostly Clear FEW013 71 54     55%   70 29.98 29.98      
Jul 26 15:56   10 Mostly Clear FEW013 70 54     57%     29.99 29.98      
Jul 26 14:56   10 Mostly Clear FEW012 73 55     53%   73 30 30      
Jul 26 13:56 WNW 14 10 Clear CLR 66 55     68%     30.02 30.02      
Jul 26 12:56 NW 13 10 Clear CLR 66 56     70%     30.04 30.04      
Jul 26 11:56 NW 10 10 Mostly Clear FEW010 62 55     78%     30.04 30.04      
Jul 26 10:56 WNW 11 10 Cloudy FEW009 OVC015 60 55     83%     30.06 30.06      
Jul 26 09:56 WNW 11 10 Cloudy FEW009 OVC015 62 55     78%     30.06 30.06      
Jul 26 08:56 WNW 9 10 Cloudy FEW008 OVC013 60 55     83%     30.05 30.05      
Jul 26 07:56 WNW 9 10 Cloudy FEW008 OVC011 60 55     83%     30.04 30.04      
Jul 26 06:56 WNW 8 10 Cloudy FEW008 OVC010 61 55     81%     30.03 30.03      
Jul 26 05:56 W 8 10 Cloudy FEW008 BKN010 OVC012 63 55     75%     30.02 30.02      
Jul 26 04:56 W 8 10 Mostly Cloudy FEW009 SCT011 BKN013 61 54     78%     30.01 30.01      
Jul 26 03:56 WNW 6 10 Mostly Cloudy FEW011 BKN014 59 54     83%     30 30      
Jul 26 02:56 W 8 10 Mostly Cloudy FEW013 BKN016 61 54     78%     30 30      
Jul 26 01:56 W 7 10 Mostly Clear FEW011 61 53     75%     30 30      
Jul 26 00:56 W 7 10 Mostly Clear FEW013 61 54     78%     30 30      
Jul 25 23:56 W 7 10 Mostly Clear FEW013 63 54     72%     30 30      
Jul 25 22:56 W 7 10 Mostly Clear FEW011 64 54     70%     30 29.99      
Jul 25 21:56 WNW 8 10 Mostly Clear FEW011 67 54     63%     29.98 29.98      
Jul 25 20:56 WNW 9 10 Mostly Clear FEW011 67 54     63%     29.96 29.96      
Jul 25 19:56 W 9 10 Mostly Clear FEW013 70 54     57%     29.95 29.94      
Jul 25 18:56 W 13 10 Mostly Clear FEW013 70 54     57%     29.94 29.93      
Notice The following observation data may not be complete
Jul 25 17:56 W 11 10 Mostly Clear FEW014   54      %     29.93 29.93      
Jul 25 16:56 WSW 10 10 Mostly Clear FEW017 75 54     48%   74 29.93 29.93      
Jul 25 15:56 WSW 13 10 Mostly Clear FEW015 77 54     45%   77 29.94 29.94      
Jul 25 14:56 WSW 13 10 Mostly Clear FEW015 77 54     45%   77 29.95 29.95      
Jul 25 13:56 N 10 10 Clear CLR 73 56     55%   73 29.94 29.94      
Jul 25 12:56 NNE 11 10 Clear CLR 70 56     61%     29.95 29.95      
Jul 25 11:56 NNE 11 10 Clear CLR 68 57     68%     29.96 29.96      
Jul 25 10:56 NE 7 10 Mostly Clear FEW020 68 55     63%     29.96 29.96      
Jul 25 09:56 NE 8 10 Mostly Clear FEW020 66 55     68%     29.96 29.96      
Jul 25 07:56 S 8 10 Cloudy FEW014 OVC017 63 53     70%     29.94 29.94      
Jul 25 06:56 S 5 10 Cloudy FEW013 OVC017 61 52     72%     29.93 29.92      
Jul 25 05:56 3 10 Cloudy FEW013 BKN015 OVC017 61 52     72%     29.91 29.91      
Jul 25 04:56 SSW 7 10 Mostly Cloudy FEW013 BKN015 BKN017 61 52     72%     29.9 29.9      
Jul 25 03:56 SSW 9 10 Mostly Cloudy FEW013 BKN015 61 53     75%     29.89 29.89      
Jul 25 03:18 Calm 10 Mostly Cloudy FEW015 BKN017 60 53     78%     29.89        
Jul 25 02:56 SW 5 10 Mostly Clear FEW015 61 53     75%     29.89 29.89      
Jul 25 01:56 Calm 10 Mostly Clear FEW013 61 52     72%     29.89 29.89      
Jul 25 00:56 SSE 6 10 Mostly Clear FEW013 61 53     75%     29.89 29.89      
Jul 24 23:56 SSE 7 10 Mostly Clear FEW013 62 53     72%     29.88 29.88      
Jul 24 22:56 SSE 6 10 Mostly Clear FEW011 63 53     70%     29.87 29.87      
Jul 24 21:56 S 10 10 Mostly Clear FEW035 64 52     65%     29.87 29.86      
Jul 24 20:56 W 6 10 Mostly Clear FEW035 64 52     65%     29.84 29.84      
Jul 24 19:56 3 10 Mostly Clear FEW045 67 53     61%     29.83 29.83      
Jul 24 18:56 WSW 15 10 Mostly Clear FEW045 69 52     54%     29.82 29.82      
Jul 24 17:56   10 Mostly Clear FEW040 68 53     59%     29.82 29.82      
Jul 24 16:56   10 Mostly Clear FEW040 71 53     53%   70 29.82 29.82      
Jul 24 15:56 SSW 21 10 Mostly Clear and Windy FEW050 71 53     53%   70 29.82 29.81      
Jul 24 14:56 S 14 10 Mostly Clear FEW050 73 53     50%   72 29.83 29.83      
Jul 24 13:56 SSW 13 10 Mostly Clear FEW020 FEW180 72 54     53%   71 29.85 29.85      
Jul 24 13:28   10 Mostly Clear FEW020 FEW180 72 54     53%   71 29.85        
Jul 24 12:56 NE 5 10 Mostly Clear FEW020 FEW180 71 56     59%   71 29.86 29.85      
Jul 24 11:56 NNE 9 10 Mostly Clear FEW009 FEW180 67 56     68%     29.86 29.85      
Jul 24 10:56 NE 8 10 Mostly Clear FEW009 66 56     70%     29.86 29.86      
Jul 24 09:56 ENE 7 10 Mostly Clear FEW009 64 55     73%     29.86 29.86      
Jul 24 08:56 ESE 6 10 Mostly Clear FEW009 63 54     72%     29.86 29.86      
Jul 24 07:56 Calm 10 Mostly Clear FEW009 60 52     75%     29.86 29.85      
Jul 24 06:56 SSW 3 10 Mostly Clear FEW009 57 53     87%     29.85 29.85      
Jul 24 05:56 W 6 10 Partly Cloudy SCT009 55 51     86%     29.84 29.83      
Jul 24 04:56 W 6 10 Mostly Clear FEW008 56 51     84%     29.83 29.83      
Jul 24 03:56 W 7 10 Mostly Clear FEW008 56 52     87%     29.83 29.83      
Jul 24 02:56 WNW 6 10 Mostly Clear FEW008 57 52     83%     29.83 29.83      
Jul 24 01:56 WNW 8 10 Mostly Clear FEW008 57 52     83%     29.83 29.83      
Jul 24 00:56 W 8 10 Mostly Clear FEW009 57 52     83%     29.84 29.83      
Jul 23 23:56 WNW 9 10 Mostly Clear FEW009 57 53     87%     29.84 29.83      
Jul 23 22:56 WNW 9 10 Mostly Clear FEW009 58 53     84%     29.83 29.83      
Jul 23 21:56 NW 10 10 Mostly Clear FEW010 59 53     81%     29.82 29.82      
Jul 23 20:56 WNW 15 10 Mostly Clear FEW010 58 53     84%     29.8 29.8      
Jul 23 19:56 WNW 18 10 Mostly Clear FEW010 60 53     78%     29.79 29.78      
Jul 23 18:56 WNW 21 10 Mostly Clear and Windy FEW010 62 53     72%     29.78 29.78      
Notice The following observation data may not be complete
Jul 23 17:56   10 Mostly Clear FEW010          %              
Jul 23 16:56   10 Mostly Clear FEW010 67 53     61%     29.78 29.78      
Jul 23 15:56   10 Mostly Clear FEW010 67 53     61%     29.8 29.8      
Jul 23 14:56   10 Mostly Clear FEW010 68 53     59%     29.81 29.8      
Jul 23 13:56 WNW 20 10 Mostly Clear and Windy FEW010 69 53     57%     29.82 29.82      
Jul 23 12:56 WNW 18 10 Mostly Clear FEW011 70 53     55%     29.84 29.84      
Jul 23 11:56 WNW 15 10 Mostly Clear FEW011 68 53     59%     29.85 29.85      
Jul 23 10:56 WNW 13 10 Mostly Clear FEW009 65 53     65%     29.85 29.85      
Jul 23 09:56 WNW 11 10 Mostly Clear FEW009 65 53     65%     29.85 29.85      
Jul 23 08:56 NW 7 10 Mostly Clear FEW008 64 53     67%     29.86 29.85      
Jul 23 07:56 WNW 7 10 Mostly Clear FEW008 60 54     80%     29.85 29.85      
Jul 23 06:56 WNW 9 10 Mostly Clear FEW008 57 53     87%     29.85 29.84      
Jul 23 05:56 WNW 9 10 Mostly Clear FEW017 56 52     87%     29.83 29.83      
Jul 23 04:56 WNW 9 10 Mostly Clear FEW020 57 53     87%     29.83 29.83      
Jul 23 03:56 WNW 13 10 Mostly Clear FEW017 58 53     84%     29.82 29.82      
Jul 23 02:56 WNW 8 10 Clear CLR 58 53     84%     29.82 29.82      
Jul 23 01:56 WNW 14 10 Clear CLR 59 53     81%     29.84 29.83      
Jul 23 00:56 WNW 9 10 Clear CLR 59 53     81%     29.85 29.85      
Jul 22 23:56 W 11 10 Clear CLR 61 52     72%     29.86 29.85      
Jul 22 22:56 WNW 10 10 Clear CLR 62 52     70%     29.86 29.86      
Jul 22 21:56 W 11 10 Mostly Clear FEW150 62 52     70%     29.85 29.85      
Jul 22 18:56 WNW 17 10 Mostly Cloudy SCT150 BKN180 75 49     40%   74 29.82 29.82      
Jul 22 17:56 WNW 18 10 Partly Cloudy FEW004 SCT180 77 51     40%   76 29.82 29.82      
Jul 22 16:56 WNW 15 10 Mostly Clear FEW004 FEW180 79 52     39%   78 29.82 29.82      
Jul 22 15:56 WNW 15 10 Mostly Clear FEW005 FEW180 77 55     47%   77 29.84 29.84      
Notice The following observation data may not be complete
Jul 22 14:56 WNW 13 10 Mostly Clear FEW005   55      %     29.86 29.86      
Jul 22 13:56 WNW 10 10 Mostly Clear FEW011 78 55     45%   78 29.88 29.88      
Jul 22 12:56 NNE 6 10 Clear CLR 71 58     63%   71 29.9 29.9      
Jul 22 11:56 NE 7 10 Clear CLR 68 57     68%     29.92 29.91      
Jul 22 10:56 ENE 5 10 Clear CLR 67 56     68%     29.93 29.93      
Jul 22 09:56 NNE 6 10 Clear CLR 65 56     73%     29.94 29.94      
Jul 22 08:56 NE 5 10 Clear CLR 64 55     73%     29.94 29.94      
Jul 22 07:56 Calm 10 Clear CLR 61 52     72%     29.94 29.94      
Jul 22 06:56 Calm 10 Mostly Clear FEW011 57 52     83%     29.93 29.93      
Jul 22 05:56 WNW 6 10 Mostly Clear FEW010 56 50     80%     29.92 29.92      
Jul 22 04:56 WNW 6 10 Clear CLR 56 50     80%     29.91 29.91      
Jul 22 03:56 W 8 10 Clear CLR 56 50     80%     29.92 29.91      
Jul 22 02:56 WNW 7 10 Clear CLR 57 51     81%     29.93 29.92      
Jul 22 01:56 WNW 7 10 Mostly Clear FEW009 57 51     81%     29.94 29.93      
Jul 22 00:56 WNW 7 10 Mostly Clear FEW010 58 51     78%     29.95 29.95      
Jul 21 23:56 NW 7 10 Mostly Clear FEW010 58 51     78%     29.96 29.95      
Jul 21 22:56 WNW 11 10 Mostly Clear FEW010 58 51     78%     29.96 29.96      
Jul 21 21:56 W 15 10 Mostly Clear FEW010 59 51     75%     29.96 29.96      
Jul 21 20:56 W 14 10 Mostly Clear FEW010 FEW180 60 51     72%     29.96 29.96      
Jul 21 19:56 W 15 10 Mostly Clear FEW010 FEW180 61 51     70%     29.95 29.95      
Jul 21 18:56 W 16 10 Mostly Clear FEW010 FEW180 63 51     65%     29.95 29.95      
Jul 21 17:56   10 Mostly Clear FEW013 FEW180 65 51     61%     29.95 29.95      
Jul 21 16:56   10 Mostly Clear FEW012 FEW180 66 51     59%     29.97 29.96      
Jul 21 15:56   10 Mostly Clear FEW011 FEW200 68 50     53%     29.98 29.98      
Jul 21 14:56   10 Mostly Clear FEW011 FEW200 69 50     51%     29.98 29.98      
Jul 21 13:56   10 Mostly Clear FEW045 68 50     53%     30 30      
Jul 21 12:56   10 Mostly Clear FEW045 68 51     55%     30 30      
Jul 21 11:56 WNW 17 10 Mostly Clear FEW012 FEW035 68 51     55%     30.01 30.01      
Jul 21 10:56 WNW 17 10 Mostly Clear FEW012 FEW035 65 50     58%     30.02 30.02      
Jul 21 09:56 WNW 13 10 Mostly Clear FEW012 63 51     65%     30.02 30.01      
Jul 21 08:56   10 Mostly Clear FEW025 60 50     69%     30.02 30.02      
Jul 21 07:56 W 15 10 Partly Cloudy SCT012 58 51     78%     30.02 30.02      
Jul 21 06:56 W 13 10 Mostly Clear FEW020 56 50     80%     30.02 30.01      
Jul 21 05:56 W 10 10 Mostly Clear FEW010 56 50     80%     30.01 30.01      
Jul 21 04:56 W 13 10 Mostly Clear FEW010 56 50     80%     29.99 29.99      
Jul 21 03:56 W 13 10 Mostly Clear FEW010 56 50     80%     30 29.99      
Jul 21 02:56 W 9 10 Mostly Clear FEW011 56 50     80%     30 30      
Jul 21 01:56 W 15 10 Mostly Clear FEW009 56 50     80%     30.01 30.01      
Jul 21 00:56   10 Mostly Clear FEW011 57 50     77%     30.01 30.01      
Jul 20 23:56 WNW 11 10 Mostly Clear FEW012 58 50     75%     30.01 30.01      
Jul 20 22:56   10 Mostly Clear FEW012 58 50     75%     30.02 30.01      
Jul 20 21:56   10 Mostly Clear FEW013 59 50     72%     30.01 30.01      
Jul 20 20:56   10 Mostly Clear FEW015 59 50     72%     30.01 30.01      
Jul 20 19:56   10 Mostly Clear FEW014 61 50     67%     30.01 30.01      
Jul 20 18:56 W 17 10 Mostly Clear FEW014 63 51     65%     30 30      
Jul 20 17:56 W 16 10 Mostly Clear FEW014 65 51     61%     30.01 30.01      
Jul 20 16:56   10 Mostly Clear FEW014 67 52     59%     30.02 30.02      
Jul 20 15:56   10 Mostly Clear FEW014 67 52     59%     30.03 30.03      
Jul 20 14:56   10 Mostly Clear FEW014 67 52     59%     30.05 30.05      
Jul 20 13:56   10 Mostly Clear FEW012 FEW035 67 52     59%     30.06 30.06      
Jul 20 12:56   10 Mostly Clear FEW035 66 52     61%     30.07 30.06      
Jul 20 11:56 WNW 16 10 Mostly Cloudy BKN035 65 52     63%     30.08 30.08      
Jul 20 10:56 W 15 10 Partly Cloudy SCT030 63 52     67%     30.08 30.07      
Jul 20 09:56 WNW 15 10 Partly Cloudy SCT025 62 52     70%     30.07 30.07      
Jul 20 08:56 WNW 11 10 Partly Cloudy SCT013 61 51     70%     30.06 30.06      
Jul 20 07:56 W 8 10 Mostly Cloudy BKN012 58 52     81%     30.06 30.06      
Jul 20 06:56 WSW 8 10 Mostly Cloudy BKN011 57 51     81%     30.05 30.05      
Jul 20 05:56 W 9 10 Partly Cloudy FEW008 SCT012 56 51     84%     30.04 30.04      
Jul 20 04:56 WNW 7 10 Mostly Clear FEW008 56 51     84%     30.03 30.02      
Jul 20 02:56 W 11 10 Mostly Clear FEW008 57 51     81%     30.02 30.02      
Jul 20 01:56 W 11 10 Partly Cloudy FEW008 SCT011 57 51     81%     30.01 30.01      
Jul 20 00:56   10 Mostly Clear FEW008 58 51     78%     30.02 30.02      
Jul 19 23:56   10 Mostly Clear FEW012 58 51     78%     30.02 30.02      
Jul 19 22:56   10 Mostly Clear FEW012 58 51     78%     30.02 30.02      
Jul 19 21:56 W 15 10 Mostly Clear FEW010 59 51     75%     30.01 30.01      
Jul 19 20:56 W 20 10 Mostly Clear and Windy FEW010 60 51     72%     29.99 29.99      
Jul 19 19:56 W 17 10 Mostly Clear FEW013 61 50     67%     29.98 29.98      
Jul 19 17:56 W 18 10 Mostly Clear FEW012 64 50     60%     29.98 29.98      
Jul 19 16:56   10 Mostly Clear FEW012 66 50     56%     29.99 29.99      
Jul 19 15:56   10 Mostly Clear FEW013 68 49     50%     30 30      
Jul 19 14:56   10 Mostly Clear FEW013 70 49     47%     30.02 30.01      
Jul 19 13:56   10 Clear CLR 68 50     53%     30.02 30.02      
Jul 19 12:56 WNW 20 10 Clear and Windy CLR 70 50     49%     30.03 30.03      
Jul 19 11:56   10 Mostly Clear FEW008 67 50     55%     30.03 30.03      
Jul 19 10:56 WNW 16 10 Mostly Clear FEW008 65 50     58%     30.03 30.03      
Jul 19 09:56 WNW 15 10 Mostly Clear FEW008 63 50     63%     30.03 30.03      
Jul 19 08:56 NW 9 10 Mostly Clear FEW008 61 50     67%     30.03 30.03      
Jul 19 07:56 WNW 7 10 Mostly Clear FEW008 58 51     78%     30.03 30.03      
Jul 19 03:56 WNW 9 10 Mostly Clear FEW008 55 51     86%     29.98 29.98      
Jul 19 02:56 WNW 10 10 Mostly Clear FEW007 55 51     86%     29.99 29.99      
Jul 19 01:56 WNW 13 10 Mostly Clear FEW007 55 51     86%     30 30      
Jul 19 00:56 WNW 11 10 Mostly Clear FEW009 56 51     84%     30.01 30.01      
Jul 19 00:39 WNW 14 10 Partly Cloudy FEW009 SCT011 56 51     84%     30        
Jul 18 23:56 W 11 10 Mostly Cloudy FEW009 BKN011 57 51     81%     30 30      
Jul 18 22:56 W 14 10 Mostly Cloudy FEW010 BKN012 58 51     78%     30.02 30.01      
Jul 18 22:29 W 11 10 Mostly Cloudy FEW010 BKN012 58 51     78%     30.02        
Jul 18 20:56 W 11 10 Mostly Clear FEW010 58 51     78%     30 30      
Jul 18 19:56 W 17 10 Mostly Clear FEW010 61 51     70%     30 30      
Jul 18 18:56 W 17 10 Mostly Clear FEW011 63 51     65%     30 30      
Jul 18 17:56   10 Mostly Clear FEW014 64 50     60%     30.01 30.01      
Jul 18 15:56   10 Mostly Clear FEW014 FEW200 66 51     59%     30.03 30.03      
Jul 18 14:56   10 Mostly Clear FEW014 65 51     61%     30.03 30.03      
Jul 18 13:56   10 Mostly Clear FEW014 65 51     61%     30.04 30.04      
Jul 18 12:56   10 Mostly Clear FEW014 64 50     60%     30.05 30.05      
Jul 18 11:56   10 Mostly Cloudy SCT009 BKN014 61 50     67%     30.05 30.05      
Jul 18 10:56 W 15 10 Mostly Cloudy SCT009 BKN012 60 50     69%     30.06 30.06      
Jul 18 09:56 WSW 16 10 Cloudy FEW007 BKN009 OVC012 58 50     75%     30.05 30.05      
Jul 18 08:56 W 11 10 Cloudy BKN007 OVC009 56 50     80%     30.04 30.03      
Jul 18 07:56 W 14 10 Cloudy OVC007 55 50     83%     30.01 30.01      
Jul 18 06:56 WSW 13 10 Mostly Cloudy BKN008 55 50     83%     30 30      
Jul 18 03:56 W 14 10 Mostly Clear FEW011 57 50     77%     29.95 29.94      
Notice The following observation data may not be complete
Jul 18 01:56   10 Mostly Clear FEW011          %              
Jul 18 00:56 WNW 10 10 Mostly Clear FEW011 57 50     77%     29.93 29.93      
Notice The following observation data may not be complete
Jul 17 23:56   10 Mostly Clear FEW011          %              
Jul 17 22:56 WNW 16 10 Mostly Clear FEW010 58 50     75%     29.93 29.93      
Jul 17 21:56 W 13 10 Mostly Clear FEW010 59 50     72%     29.91 29.91      
Jul 17 20:56 WNW 16 10 Mostly Clear FEW010 59 50     72%     29.9 29.9      
Jul 17 19:56   10 Mostly Clear FEW010 61 50     67%     29.89 29.89      
Jul 17 18:56   10 Clear CLR 65 50     58%     29.88 29.88      
Jul 17 17:56 WNW 20 10 Clear and Windy CLR 67 50     55%     29.88 29.88      
Jul 17 16:56 WNW 18 10 Clear CLR 69 50     51%     29.89 29.88      
Jul 17 15:56   10 Clear CLR 70 50     49%     29.88 29.88      
Jul 17 14:56   10 Clear CLR 71 50     47%   70 29.89 29.89      
Notice The following observation data may not be complete
Jul 17 13:56   10 Clear CLR          %              
Jul 17 12:56   10 Clear CLR 68 51     55%     29.9 29.9      
Jul 17 11:56   10 Clear CLR 67 51     57%     29.9 29.9      
Jul 17 10:56 WNW 20 10 Clear and Windy CLR 66 51     59%     29.89 29.89      
Jul 17 09:56 WNW 18 10 Clear CLR 64 50     60%     29.89 29.89      
Jul 17 08:56 WNW 15 9 Clear CLR 63 50     63%     29.89 29.89      
Jul 17 07:56 WNW 14 9 Clear CLR 61 50     67%     29.89 29.89      
Jul 17 06:56 WNW 13 10 Clear CLR 58 50     75%     29.87 29.87      
Jul 17 05:56 NW 10 10 Clear CLR 59 50     72%     29.86 29.85      
Jul 17 04:56 WNW 9 10 Clear CLR 59 49     69%     29.84 29.84      
Jul 17 03:56   10 Clear CLR 59 49     69%     29.84 29.83      
Jul 17 02:56   10 Clear CLR 59 50     72%     29.84 29.84      
Jul 17 01:56 WNW 14 10 Clear CLR 59 50     72%     29.84 29.84      
Jul 17 00:56 WNW 14 10 Clear CLR 60 50     69%     29.85 29.85      
Jul 16 23:56   10 Clear CLR 61 50     67%     29.86 29.85      
Jul 16 22:56   10 Clear CLR 61 50     67%     29.86 29.85      
Jul 16 21:56 NNW 13 10 Clear CLR 62 50     65%     29.84 29.84      
Jul 16 20:56 NW 14 10 Mostly Clear FEW200 62 50     65%     29.84 29.84      
Jul 16 19:56   10 Mostly Clear FEW200 64 50     60%     29.83 29.83      
Jul 16 18:56   10 Mostly Clear FEW200 69 48     47%     29.82 29.82      
Jul 16 17:56   10 Mostly Clear FEW200 74 45     36%   73 29.83 29.83      
Jul 16 16:56   10 Mostly Clear FEW200 78 45     31%   77 29.85 29.85      
Jul 16 15:56   10 Clear CLR 80 45     29%   79 29.87 29.87      
Jul 16 14:56   10 Mostly Clear FEW070 79 47     32%   78 29.89 29.89      
Jul 16 13:56   10 Mostly Clear FEW070 81 50     34%   80 29.89 29.89      
Jul 16 12:56   10 Mostly Clear FEW070 78 52     40%   77 29.9 29.9      
Notice The following observation data may not be complete
Jul 16 11:56 WNW 13 10 Mostly Clear FEW060   51      %     29.9 29.9      
Jul 16 10:56 N 5 10 Mostly Clear FEW070 74 58     57%   74 29.92 29.92      
Jul 16 09:56 NNW 6 10 Mostly Clear FEW070 73 53     50%   72 29.93 29.93      
Jul 16 08:56 NW 8 10 Mostly Clear FEW070 69 53     57%     29.94 29.94      
Jul 16 07:56 NNW 6 10 Mostly Clear FEW070 68 51     55%     29.93 29.93      
Jul 16 06:56 Calm 10 Mostly Clear FEW060 63 51     65%     29.92 29.92      
Jul 16 05:56 W 5 10 Mostly Clear FEW017 59 50     72%     29.92 29.92      
Jul 16 04:56 W 5 10 Mostly Clear FEW020 60 50     69%     29.92 29.91      
Jul 16 03:56 WNW 6 10 Mostly Clear FEW023 60 50     69%     29.92 29.92      
Jul 16 02:56 WNW 5 10 Mostly Clear FEW017 60 50     69%     29.92 29.92      
Jul 16 01:56 W 7 10 Mostly Clear FEW017 61 50     67%     29.93 29.93      
Jul 16 00:56 WNW 9 10 Clear CLR 62 50     65%     29.94 29.93      
Jul 15 23:56 WNW 7 10 Mostly Clear FEW040 62 50     65%     29.94 29.94      
Jul 15 22:56 W 10 10 Mostly Clear FEW020 62 50     65%     29.93 29.93      
Jul 15 21:56 WNW 15 10 Mostly Cloudy BKN035 62 50     65%     29.93 29.93      
Jul 15 20:56   10 Mostly Cloudy BKN035 64 50     60%     29.93 29.93      
Jul 15 19:56   10 Mostly Cloudy SCT035 BKN200 66 50     56%     29.93 29.93      
Jul 15 18:56 WNW 20 10 Mostly Cloudy and Windy SCT045 BKN200 69 50     51%     29.93 29.93      
Jul 15 17:56   10 Mostly Cloudy SCT045 BKN200 70 49     47%     29.94 29.94      
Jul 15 16:56   10 Mostly Cloudy SCT070 BKN200 76 50     40%   75 29.96 29.96      
Jul 15 15:56   10 Mostly Cloudy SCT070 BKN200 80 52     38%   80 29.96 29.96      
Jul 15 14:56 WNW 17 10 Partly Cloudy SCT200 82 54     38%   81 29.98 29.98      
Jul 15 13:56 NW 9 10 Partly Cloudy SCT200 81 56     42%   81 29.99 29.99      
Jul 15 12:56 NW 9 10 Partly Cloudy SCT200 78 56     47%   78 30.01 30      
Jul 15 11:56 N 5 10 Partly Cloudy SCT200 72 59     64%   72 30.01 30.01      
Jul 15 10:56 NE 3 10 Partly Cloudy SCT200 69 57     65%     30.02 30.02      
Jul 15 09:56 NE 6 10 Mostly Clear FEW180 65 56     73%     30.02 30.02      
Jul 15 08:56 Calm 10 Mostly Clear FEW012 63 54     72%     30.03 30.03      
Jul 15 07:56 Calm 10 Mostly Clear FEW011 61 53     75%     30.03 30.02      
Jul 15 06:56 WNW 5 10 Mostly Clear FEW011 57 52     83%     30.02 30.02      
Jul 15 05:56 WNW 7 10 Mostly Clear FEW035 56 51     84%     30.01 30.01      
Jul 15 04:56 WNW 8 10 Mostly Clear FEW008 56 51     84%     30 30      
Jul 15 03:56 WNW 10 10 Mostly Clear FEW008 56 52     87%     30 30      
Jul 15 02:56 WNW 10 10 Mostly Clear FEW009 56 52     87%     30.01 30.01      
Jul 15 01:56 WNW 11 10 Mostly Clear FEW009 57 52     83%     30.01 30.01      
Jul 15 00:56 WNW 10 10 Mostly Clear FEW009 57 52     83%     30.02 30.02      
Jul 14 23:56 WNW 14 10 Mostly Clear FEW009 57 52     83%     30.04 30.03      
Jul 14 22:56 WNW 16 10 Mostly Clear FEW010 57 52     83%     30.03 30.03      
Jul 14 21:56   10 Mostly Clear FEW010 57 52     83%     30.03 30.03      
Jul 14 20:56 WNW 17 10 Mostly Clear FEW010 FEW100 57 52     83%     30.01 30.01      
Jul 14 19:56 WNW 18 10 Mostly Clear FEW010 FEW100 59 52     78%     30 30      
Jul 14 18:56   10 Mostly Clear FEW010 FEW100 60 51     72%     30 30      
Jul 14 17:56   10 Mostly Clear FEW010 FEW045 63 51     65%     29.99 29.99      
Jul 14 16:56   10 Mostly Clear FEW008 FEW045 66 51     59%     29.99 29.99      
Jul 14 15:56   10 Mostly Clear FEW008 FEW045 70 52     53%     30.01 30.01      
Jul 14 14:56 WNW 20 10 Mostly Clear and Windy FEW025 FEW180 72 53     51%   71 30.01 30      
Jul 14 13:56 NNW 13 10 Mostly Clear FEW025 FEW180 73 57     57%   73 30.02 30.02      
Jul 14 12:56 NNE 11 10 Mostly Clear FEW020 FEW180 69 57     65%     30.03 30.03      
Jul 14 11:56 N 9 10 Mostly Clear FEW020 FEW180 67 56     68%     30.03 30.03      
Jul 14 11:13 N 9 10 Mostly Clear FEW009 FEW180 66 56     70%     30.03        
Jul 14 10:56 NNE 8 10 Clear CLR 66 56     70%     30.03 30.03      
Jul 14 09:56 N 5 8 Mostly Clear FEW009 FEW180 64 54     70%     30.03 30.03      
Jul 14 08:56 NNE 3 10 Mostly Clear FEW009 FEW180 62 53     72%     30.03 30.03      
Jul 14 07:56 WNW 3 10 Partly Cloudy FEW009 SCT180 59 52     78%     30.02 30.02      
Jul 14 06:56 WNW 7 10 Cloudy OVC009 56 52     87%     30.01 30.01      
Jul 14 05:56 WNW 3 10 Mostly Cloudy BKN008 56 52     87%     30 30      
Jul 14 05:42 W 5 10 Mostly Cloudy BKN008 56 52     87%     30        
Jul 14 04:56 WNW 5 10 Mostly Clear FEW007 FEW012 55 52     89%     30 29.99      
Jul 14 03:56 WNW 8 10 Mostly Clear FEW007 FEW012 55 52     89%     29.99 29.99      
Jul 14 02:56 WNW 10 10 Mostly Clear FEW007 55 52     89%     29.99 29.99      
Jul 14 01:56 WNW 10 10 Mostly Clear FEW007 56 52     87%     30 30      
Jul 14 00:56 WNW 11 10 Mostly Clear FEW007 56 52     87%     30.01 30.01      
Jul 13 23:56 WNW 14 10 Mostly Clear FEW007 56 52     87%     30.02 30.01      
Jul 13 22:56   10 Mostly Clear FEW008 56 52     87%     30.02 30.01      
Jul 13 21:56 WNW 16 10 Mostly Clear FEW020 57 52     83%     30 30      
Jul 13 20:56   10 Mostly Clear FEW020 58 52     81%     29.99 29.99      
Jul 13 19:56 WNW 17 10 Mostly Clear FEW010 60 51     72%     29.98 29.98      
Jul 13 18:56   10 Mostly Clear FEW010 62 51     67%     29.98 29.98      
Jul 13 17:56 WNW 20 10 Mostly Clear and Windy FEW010 67 50     55%     29.98 29.98      
Jul 13 16:56 WNW 17 10 Mostly Clear FEW010 68 51     55%     29.98 29.98      
Jul 13 15:56   10 Mostly Clear FEW010 68 51     55%     29.99 29.99      
Jul 13 14:56 WNW 20 10 Mostly Clear and Windy FEW010 68 52     57%     29.98 29.98      
Jul 13 13:56 NW 17 10 Mostly Clear FEW010 70 53     55%     30 29.99      
Jul 13 12:56 NNW 13 10 Clear CLR 69 53     57%     30.01 30.01      
Jul 13 11:56 NNE 8 10 Mostly Clear FEW010 67 56     68%     30.01 30.01      
Jul 13 10:56 NNE 8 10 Mostly Clear FEW009 65 56     73%     30.01 30.01      
Jul 13 09:56 NE 6 10 Mostly Clear FEW009 64 55     73%     30.01 30.01      
Jul 13 08:56 N 5 10 Partly Cloudy SCT009 61 53     75%     30.01 30.01      
Jul 13 05:56 W 6 10 Partly Cloudy SCT010 54 51     90%     29.97 29.97      
Jul 13 04:56 W 7 10 Mostly Clear FEW008 54 51     90%     29.96 29.96      
Jul 13 03:56 W 7 10 Mostly Clear FEW007 54 51     90%     29.96 29.96      
Jul 13 02:56 WNW 7 10 Mostly Clear FEW006 54 51     90%     29.96 29.96      
Jul 13 01:56 WNW 11 10 Mostly Clear FEW006 55 52     89%     29.96 29.96      
Jul 13 00:56 WNW 11 10 Mostly Clear FEW007 56 52     87%     29.96 29.96      
Jul 12 23:56 WNW 10 10 Mostly Clear FEW007 56 52     87%     29.96 29.96      
Jul 12 22:56 WNW 9 10 Mostly Clear FEW008 57 52     83%     29.96 29.96      
Jul 12 21:56 WNW 13 10 Mostly Clear FEW009 57 52     83%     29.95 29.95      
Jul 12 20:56   10 Mostly Clear FEW007 58 52     81%     29.93 29.93      
Jul 12 19:56 WNW 16 10 Mostly Clear FEW008 60 52     75%     29.91 29.91      
Jul 12 18:56 WNW 21 10 Mostly Clear and Windy FEW008 62 52     70%     29.9 29.9      
Jul 12 17:56 NW 18 10 Mostly Clear FEW008 66 52     61%     29.91 29.91      
Jul 12 16:56 NW 18 10 Mostly Clear FEW009 68 52     57%     29.91 29.91      
Jul 12 15:56   10 Mostly Clear FEW009 68 51     55%     29.92 29.92      
Jul 12 14:56   10 Mostly Clear FEW009 67 52     59%     29.93 29.93      
Jul 12 13:56 WNW 17 10 Clear CLR 69 52     54%     29.95 29.95      
Jul 12 12:56 NW 15 10 Clear CLR 69 52     54%     29.95 29.95      
Jul 11 18:56 WNW 15 10 Mostly Clear FEW011 63 49     60%     29.9 29.9      
Jul 11 17:56   10 Mostly Clear FEW011 66 49     54%     29.9 29.9      
Jul 10 12:56   10 Mostly Clear FEW180 65 51     61%     29.93 29.93      
Jul 10 11:56   10 Mostly Clear FEW180 65 51     61%     29.93 29.93      
Jul 10 10:56 NW 16 10 Mostly Clear FEW025 66 52     61%     29.93 29.93      
Jul 10 09:56 NW 13 10 Mostly Clear FEW025 63 52     67%     29.93 29.92      
Jul 10 08:56   10 Mostly Clear FEW025 61 53     75%     29.92 29.91      
Jul 10 07:56 WNW 9 10 Mostly Clear FEW025 59 52     78%     29.91 29.91      
Jul 10 06:56 WNW 9 9 Mostly Clear FEW180 56 52     87%     29.9 29.9      
Jul 10 05:56 WNW 8 10 Clear CLR 55 51     86%     29.89 29.88      
Jul 10 04:56 WNW 9 10 Mostly Clear FEW008 56 51     84%     29.89 29.88      
Jul 10 03:56 WNW 8 10 Mostly Clear FEW008 56 51     84%     29.88 29.88      
Jul 10 02:56 WNW 10 10 Mostly Clear FEW010 57 51     81%     29.89 29.88      
Jul 10 01:56 WNW 8 10 Mostly Clear FEW010 57 51     81%     29.89 29.88      
Jul 10 00:56 WNW 13 10 Clear CLR 58 51     78%     29.89 29.88      
Jul 09 23:56 WNW 11 10 Clear CLR 59 51     75%     29.9 29.89      
Jul 09 22:56 WNW 16 10 Mostly Clear FEW010 58 51     78%     29.89 29.89      
Jul 09 21:56 WNW 14 10 Mostly Clear FEW010 59 51     75%     29.89 29.89      
Jul 09 20:56   10 Mostly Clear FEW010 59 51     75%     29.88 29.88      
Jul 09 19:56   9 Mostly Clear FEW010 61 50     67%     29.87 29.87      
Jul 09 18:56   10 Mostly Clear FEW010 62 51     67%     29.87 29.86      
Jul 09 17:56   10 Mostly Clear FEW010 64 51     63%     29.87 29.87      
Jul 09 16:56   10 Mostly Clear FEW010 66 51     59%     29.88 29.87      
Jul 09 13:56 WNW 15 10 Mostly Clear FEW008 70 51     51%     29.91 29.91      
Jul 09 12:56 WNW 17 10 Mostly Clear FEW007 66 51     59%     29.93 29.93      
Jul 09 11:56   10 Mostly Clear FEW007 63 51     65%     29.93 29.93      
Jul 09 10:56 WNW 16 10 Mostly Clear FEW006 62 50     65%     29.94 29.94      
Jul 09 09:56 NW 17 10 Mostly Clear FEW006 60 51     72%     29.94 29.93      
Jul 09 08:56 NW 14 10 Mostly Clear FEW007 58 51     78%     29.95 29.95      
Jul 09 07:56 WNW 11 10 Mostly Clear FEW006 56 50     80%     29.95 29.94      
Jul 09 06:56 WNW 9 10 Mostly Clear FEW006 54 51     90%     29.94 29.94      
Jul 09 05:56 WNW 13 10 Mostly Clear FEW005 53 50     89%     29.92 29.92      
Jul 09 05:24 WNW 14 10 Mostly Clear FEW005 53 50     89%     29.92        
Jul 09 04:56 WNW 11 10 Mostly Clear FEW010 54 50     86%     29.92 29.92      
Jul 09 03:56 WNW 11 10 Mostly Clear FEW010 54 50     86%     29.91 29.91      
Jul 09 02:56 WNW 13 10 Mostly Clear FEW010 54 51     90%     29.92 29.92      
Jul 09 01:56 WNW 16 10 Mostly Clear FEW010 54 51     90%     29.91 29.91      
Jul 09 00:56 WNW 16 10 Mostly Clear FEW007 56 51     84%     29.93 29.92      
Jul 08 23:56   10 Mostly Clear FEW007 57 51     81%     29.92 29.92      
Jul 08 22:56   10 Mostly Clear FEW005 58 51     78%     29.94 29.94      
Jul 08 21:56 WNW 16 10 Mostly Clear FEW005 59 51     75%     29.93 29.93      
Jul 08 20:56 WNW 15 10 Mostly Clear FEW005 60 51     72%     29.91 29.91      
Jul 08 19:56   10 Mostly Clear FEW005 61 51     70%     29.9 29.9      
Jul 08 18:56   10 Mostly Clear FEW005 63 51     65%     29.91 29.91      
Jul 08 17:56   10 Mostly Clear FEW005 FEW200 64 52     65%     29.91 29.91      
Jul 08 16:56   10 Mostly Clear FEW005 65 51     61%     29.92 29.92      
Jul 08 15:56   10 Mostly Clear FEW008 68 49     50%     29.92 29.92      
Jul 08 14:56   10 Mostly Clear FEW009 FEW200 71 49     45%   70 29.93 29.93      
Jul 08 13:56   10 Mostly Clear FEW011 75 46     36%   74 29.93 29.93      
Notice The following observation data may not be complete
Jul 08 12:56   10 Mostly Clear FEW011   48      %     29.93 29.93      
Jul 08 11:56   10 Mostly Clear FEW011 74 49     41%   73 29.93 29.92      
Jul 08 10:56 WNW 16 10 Mostly Clear FEW200 75 50     41%   74 29.92 29.92      
Jul 08 09:56 WNW 8 10 Mostly Clear FEW200 73 50     44%   72 29.92 29.92      
Jul 08 08:56 WNW 9 10 Mostly Clear FEW200 69 50     51%     29.93 29.93      
Jul 08 07:56 NW 5 10 Mostly Clear FEW200 67 49     52%     29.92 29.91      
Jul 08 06:56 W 5 10 Mostly Clear FEW200 63 48     58%     29.9 29.9      
Jul 08 05:56 W 8 10 Mostly Clear FEW180 60 48     64%     29.9 29.9      
Jul 08 04:56 W 5 10 Mostly Clear FEW030 60 48     64%     29.89 29.89      
Jul 08 02:56 NW 5 10 Clear CLR 62 49     62%     29.9 29.9      
Jul 08 01:56 WSW 5 10 Mostly Clear FEW030 62 48     60%     29.91 29.91      
Jul 08 00:56 W 9 10 Clear CLR 61 48     62%     29.92 29.92      
Jul 07 23:56 WNW 10 10 Clear CLR 61 48     62%     29.92 29.92      
Jul 07 22:56 WNW 14 10 Clear CLR 63 49     60%     29.93 29.93      
Jul 07 21:56 WNW 13 10 Clear CLR 63 49     60%     29.93 29.93      
Jul 07 20:56 WNW 13 10 Clear CLR 64 48     56%     29.92 29.91      
Jul 07 19:56   10 Mostly Clear FEW035 68 47     47%     29.9 29.9      
Jul 07 18:56   10 Mostly Clear FEW035 72 47     41%   71 29.89 29.89      
Jul 07 17:56   10 Mostly Clear FEW035 74 46     37%   73 29.91 29.91      
Jul 07 15:56   10 Mostly Clear FEW035 78 46     32%   77 29.95 29.95      
Notice The following observation data may not be complete
Jul 07 13:56   10 Clear CLR          %              
Jul 07 12:56 WNW 15 10 Clear CLR 81 51     35%   80 29.99 29.99      
Jul 07 11:56 NE 6 10 Clear CLR 71 56     59%   71 30.01 30.01      
Jul 07 10:56 ENE 8 10 Clear CLR 67 54     63%     30.01 30.01      
Jul 07 09:56 NNE 6 10 Mostly Clear FEW006 66 53     63%     30.02 30.02      
Jul 07 08:56 NNW 3 10 Mostly Clear FEW006 65 51     61%     30.04 30.03      
Jul 07 07:56 WNW 10 10 Mostly Clear FEW006 60 50     69%     30.04 30.04      
Jul 07 05:56 W 11 10 Mostly Clear FEW010 54 49     83%     30.03 30.03      
Jul 07 04:56 WNW 7 10 Clear CLR 54 50     86%     30.02 30.02      
Jul 07 03:56 W 9 10 Clear CLR 56 50     80%     30.02 30.02      
Jul 07 02:56 WNW 14 10 Clear CLR 57 50     77%     30.03 30.03      
Jul 07 01:56 WNW 13 10 Clear CLR 57 50     77%     30.03 30.03      
Jul 07 00:56 WNW 13 10 Clear CLR 58 51     78%     30.04 30.04      
Jul 06 23:56 WNW 16 10 Clear CLR 59 50     72%     30.04 30.04      
Jul 06 22:56   10 Clear CLR 58 50     75%     30.05 30.05      
Jul 06 21:56   10 Clear CLR 59 50     72%     30.05 30.05      
Jul 06 20:56   10 Mostly Clear FEW010 60 50     69%     30.03 30.03      
Jul 06 19:56 WNW 18 10 Mostly Clear FEW012 63 50     63%     30.03 30.02      
Jul 06 18:56   10 Mostly Clear FEW006 67 50     55%     30.01 30.01      
Jul 06 17:56   10 Mostly Clear FEW006 69 50     51%     30.01 30.01      
Jul 06 16:56   10 Mostly Clear FEW006 69 49     49%     30.01 30.01      
Jul 06 15:56   10 Mostly Clear FEW007 70 49     47%     30.03 30.02      
Jul 06 14:56 NW 21 10 Mostly Clear and Windy FEW007 71 50     47%   70 30.04 30.03      
Jul 06 13:56 NW 22 10 Mostly Clear and Windy FEW007 69 51     53%     30.06 30.05      
Jul 06 12:56   10 Mostly Clear FEW007 67 51     57%     30.07 30.06      
Jul 06 11:56 WNW 20 10 Clear and Windy   65 51     61%     30.08 30.08      
Jul 06 10:56 WNW 18 10 Mostly Clear FEW007 61 51     70%     30.08 30.08      
Jul 06 08:56 WNW 14 10 Mostly Clear FEW007 58 51     78%     30.08 30.08      
Jul 05 15:56   10 Partly Cloudy FEW030 SCT180 66 52     61%     30.04 30.04      
Jul 05 14:56   10 Partly Cloudy FEW030 SCT180 65 52     63%     30.04 30.04      
Jul 05 13:56   10 Partly Cloudy FEW015 SCT180 66 52     61%     30.05 30.04      
Jul 05 12:56   10 Partly Cloudy FEW015 SCT180 66 52     61%     30.05 30.04      
Jul 05 11:56 WNW 18 10 Mostly Cloudy FEW015 BKN180 63 52     67%     30.05 30.05      
Jul 05 10:56 WNW 15 10 Partly Cloudy FEW014 SCT180 63 52     67%     30.06 30.05      
Jul 05 09:56 NW 11 10 Partly Cloudy FEW008 SCT013 SCT180 61 52     72%     30.06 30.05      
Jul 05 08:56 NNW 7 10 Cloudy FEW008 OVC011 59 52     78%     30.06 30.05      
Jul 05 07:56 WNW 8 10 Cloudy FEW007 OVC010 57 51     81%     30.05 30.05      
Jul 05 06:56 WNW 8 10 Cloudy FEW007 OVC009 56 51     84%     30.04 30.03      
Jul 05 05:56 WNW 8 10 Cloudy FEW007 BKN009 OVC012 56 51     84%     30.03 30.02      
Jul 05 04:56 W 9 10 Cloudy FEW007 BKN009 OVC012 56 51     84%     30.01 30.01      
Jul 05 03:56 W 11 10 Mostly Cloudy FEW006 SCT009 BKN012 56 51     84%     30 30      
Jul 05 02:56 W 9 10 Mostly Cloudy FEW006 BKN012 56 52     87%     30.01 30.01      
Jul 05 02:27 WNW 11 10 Mostly Cloudy FEW006 BKN011 55 51     86%     30.01        
Jul 05 01:56 W 11 10 Mostly Clear FEW006 55 51     86%     30.01 30.01      
Jul 05 00:56 W 15 10 Partly Cloudy FEW004 SCT006 55 51     86%     30.01 30.01      
Jul 04 23:56 WNW 13 10 Mostly Clear FEW006 55 51     86%     30.01 30.01      
Jul 04 22:56 WNW 17 10 Mostly Clear FEW006 56 52     87%     30 30      
Jul 04 21:56 WNW 16 8 Mostly Clear FEW020 57 52     83%     29.99 29.99      
Jul 04 20:56 WNW 16 10 Mostly Clear FEW020 58 52     81%     29.98 29.98      
Jul 04 19:56   10 Mostly Clear FEW020 60 53     78%     29.96 29.96      
Jul 04 18:56   10 Mostly Clear FEW020 63 53     70%     29.97 29.97      
Jul 04 17:56   10 Mostly Clear FEW020 65 53     65%     29.96 29.96      
Jul 04 16:56   10 Mostly Clear FEW015 65 53     65%     29.97 29.97      
Jul 04 15:56 WNW 20 10 Mostly Clear and Windy FEW015 70 53     55%     29.97 29.97      
Jul 04 14:56 WNW 17 10 Mostly Clear FEW015 72 53     51%   71 29.97 29.97      
Jul 04 13:56   10 Clear CLR 70 53     55%     29.99 29.98      
Jul 04 12:56 NW 14 10 Clear CLR 69 53     57%     30 30      
Jul 04 11:56 NNE 8 10 Clear CLR 66 54     65%     30.02 30.02      
Jul 04 10:56 N 9 10 Mostly Clear FEW015 65 54     68%     30.02 30.02      
Jul 04 09:56 NE 5 10 Partly Cloudy FEW010 SCT015 64 54     70%     30.02 30.02      
Jul 04 08:56 N 3 10 Cloudy FEW008 OVC013 61 53     75%     30.02 30.02      
Jul 04 07:56 S 5 10 Cloudy FEW008 OVC011 60 53     78%     30.01 30.01      
Jul 04 06:56 WNW 7 10 Cloudy FEW008 OVC011 59 52     78%     30 30      
Jul 04 05:56 SW 6 10 Cloudy FEW008 BKN010 OVC012 58 52     81%     29.99 29.98      
Jul 04 04:56 NW 6 10 Cloudy FEW008 BKN010 OVC012 57 53     87%     29.98 29.98      
Jul 04 03:56 WNW 7 10 Cloudy FEW008 OVC010 58 53     84%     29.98 29.98      
Jul 04 02:56 WNW 6 10 Cloudy FEW008 BKN010 OVC012 58 53     84%     29.98 29.98      
Jul 04 01:56 W 5 10 Mostly Cloudy FEW007 BKN009 BKN011 58 53     84%     29.99 29.99      
Jul 04 00:56 WNW 7 10 Mostly Cloudy FEW008 BKN011 57 53     87%     30 29.99      
Jul 04 00:34 W 8 10 Mostly Cloudy FEW006 BKN011 57 52     83%     30        
Jul 03 22:56 WNW 10 10 Mostly Clear FEW006 57 53     87%     30 30      
Jul 03 21:56 WNW 11 10 Mostly Clear FEW004 58 53     84%     30 29.99      
Jul 03 20:56 WNW 14 10 Mostly Clear FEW004 58 52     81%     29.98 29.98      
Jul 03 19:56 W 15 10 Mostly Clear FEW005 61 52     72%     29.98 29.98      
Jul 03 18:56 W 17 10 Mostly Clear FEW006 65 52     63%     29.97 29.97      
Jul 03 17:56   10 Mostly Clear FEW007 68 53     59%     29.97 29.97      
Notice The following observation data may not be complete
Jul 03 16:56 WSW 13 10 Mostly Clear FEW009   50      %     29.98 29.98      
Notice The following observation data may not be complete
Jul 03 16:09 WNW 15 10 Mostly Clear FEW010   53      %     29.99        
Notice The following observation data may not be complete
Jul 03 15:56 NW 11 10 Mostly Clear FEW010   53      %     29.99 29.99      
Jul 03 14:56 N 6 10 Mostly Clear FEW010 73 55     53%   73 30.01 30.01      
Jul 03 13:56 N 7 10 Clear CLR 71 55     57%   71 30.02 30.02      
Jul 03 12:56 NNE 9 10 Clear CLR 67 56     68%     30.03 30.02      
Jul 03 11:56 NNE 9 10 Clear CLR 66 56     70%     30.03 30.03      
Jul 03 10:56 N 10 10 Mostly Clear FEW015 64 55     73%     30.03 30.03      
Jul 03 09:56 NE 8 10 Mostly Clear FEW015 62 54     75%     30.02 30.02      
Jul 03 09:45 NE 7 10 Mostly Clear FEW015 62 54     75%     30.02        
Jul 03 08:56 E 5 10 Mostly Cloudy FEW010 BKN015 60 53     78%     30.02 30.02      
Jul 03 07:56 Calm 10 Mostly Cloudy FEW005 BKN015 59 53     81%     30 30      
Jul 03 06:56 W 6 10 Cloudy OVC015 57 51     81%     29.99 29.98      
Jul 03 05:56 WNW 6 10 Cloudy OVC011 56 51     84%     29.97 29.97      
Jul 03 04:56 WNW 5 10 Cloudy OVC011 56 51     84%     29.96 29.96      
Jul 03 03:56 WNW 8 10 Mostly Cloudy BKN011 55 51     86%     29.97 29.96      
Jul 03 03:51 WNW 8 10 Mostly Cloudy BKN011 55 52     88%     29.97        
Jul 03 02:56 WNW 8 10 Mostly Clear FEW005 FEW012 55 51     86%     29.97 29.97      
Jul 03 01:56 WNW 8 10 Mostly Clear FEW005 56 51     84%     29.98 29.98      
Jul 03 00:56 WNW 9 10 Mostly Clear FEW005 56 51     84%     29.98 29.98      
Jul 02 23:56 NW 8 10 Mostly Clear FEW004 56 51     84%     29.99 29.98      
Jul 02 22:56 WNW 10 10 Mostly Clear FEW004 56 51     84%     29.98 29.98      
Jul 02 21:56 WNW 11 10 Mostly Clear FEW004 57 51     81%     29.98 29.98      
Jul 02 20:56 WNW 9 10 Mostly Clear FEW005 FEW016 60 51     72%     29.96 29.96      
Jul 02 19:56 WNW 11 10 Mostly Clear FEW007 FEW017 62 51     67%     29.96 29.96      
Jul 02 18:56 WNW 13 10 Mostly Clear FEW008 FEW017 65 52     63%     29.95 29.95      
Notice The following observation data may not be complete
Jul 02 17:56 6 10 Mostly Clear FEW008 FEW017   53      %     29.94 29.94      
Jul 02 16:56 WNW 15 10 Mostly Clear FEW006 FEW017 69 52     54%     29.94 29.93      
Notice The following observation data may not be complete
Jul 02 15:56 3 10 Mostly Clear FEW010   52      %     29.94 29.94      
Notice The following observation data may not be complete
Jul 02 14:56 6 10 Mostly Clear FEW010   53      %     29.95 29.95      
Jul 02 13:56 N 13 10 Mostly Clear FEW010 69 53     57%     29.95 29.95      
Jul 02 12:56 NE 7 10 Mostly Clear FEW011 69 55     61%     29.95 29.95      
Jul 02 11:56 NNE 7 10 Mostly Clear FEW011 67 54     63%     29.95 29.94      
Jul 02 10:56 NNE 7 10 Mostly Clear FEW009 66 53     63%     29.94 29.93      
Jul 02 09:56 N 5 10 Mostly Clear FEW009 64 51     63%     29.93 29.93      
Jul 02 08:56 SE 5 10 Mostly Clear FEW008 61 50     67%     29.94 29.93      
Jul 02 07:56 Calm 10 Mostly Clear FEW008 58 50     75%     29.93 29.93      
Jul 02 06:56 Calm 10 Mostly Clear FEW008 55 50     83%     29.91 29.91      
Jul 02 05:56 W 7 10 Mostly Clear FEW012 54 49     83%     29.9 29.9      
Jul 02 04:56 W 7 10 Mostly Clear FEW010 54 49     83%     29.89 29.89      
Jul 02 03:56 WSW 11 10 Partly Cloudy SCT011 54 49     83%     29.88 29.88      
Jul 02 03:34 SW 8 10 Mostly Cloudy BKN010 55 49     80%     29.88        
Jul 02 02:56 WNW 3 10 Cloudy OVC009 55 50     83%     29.88 29.88      
Jul 02 02:42 W 7 10 Cloudy OVC009 55 50     83%     29.88        
Jul 02 02:34 W 7 10 Cloudy OVC010 55 50     83%     29.88        
Jul 02 01:56 W 10 10 Mostly Cloudy BKN009 BKN013 55 50     83%     29.88 29.88      
Jul 02 01:19 W 13 10 Mostly Cloudy BKN009 BKN013 55 50     83%     29.89        
Jul 02 00:56 WSW 14 10 Cloudy OVC011 55 50     83%     29.89 29.89      
Jul 02 00:03 W 15 10 Mostly Cloudy FEW005 BKN013 55 50     83%     29.89        
Jul 01 23:56 W 15 10 Mostly Clear FEW005 56 50     80%     29.89 29.89      
Jul 01 22:56 W 13 10 Mostly Clear FEW005 56 50     80%     29.89 29.88      
Jul 01 21:56 W 14 10 Mostly Clear FEW006 57 50     77%     29.88 29.88      
Jul 01 20:56 W 13 10 Mostly Clear FEW007 57 50     77%     29.87 29.87      
Jul 01 19:56 W 14 10 Mostly Clear FEW006 58 50     75%     29.87 29.87      
Jul 01 18:56 W 16 10 Mostly Clear FEW007 60 50     69%     29.86 29.86      
Jul 01 17:56 W 16 10 Mostly Clear FEW007 62 50     65%     29.86 29.85      
Jul 01 16:56 W 20 10 Mostly Clear and Windy FEW009 63 50     63%     29.87 29.86      
Jul 01 15:56   10 Mostly Clear FEW009 65 50     58%     29.88 29.87      
Jul 01 14:56 W 18 10 Mostly Clear FEW009 66 50     56%     29.9 29.9      
Jul 01 13:56 W 15 10 Mostly Clear FEW009 66 49     54%     29.91 29.91      
Jul 01 12:56 W 14 10 Mostly Clear FEW008 65 50     58%     29.92 29.91      
Jul 01 11:56 W 14 10 Partly Cloudy FEW008 SCT017 62 50     65%     29.93 29.93      
Jul 01 11:49 WSW 15 10 Partly Cloudy FEW008 SCT017 62 50     65%     29.93        
Jul 01 11:16 WSW 11 10 Mostly Cloudy FEW008 SCT015 BKN018 60 50     69%     29.93        
Jul 01 10:56 W 15 10 Mostly Cloudy FEW008 BKN013 BKN015 60 50     69%     29.94 29.93      
Jul 01 09:56   10 Cloudy FEW008 BKN010 OVC012 57 49     74%     29.94 29.93      
Jul 01 08:56 WSW 15 9 Cloudy FEW007 BKN009 OVC011 55 50     83%     29.94 29.93      
Jul 01 07:56 W 17 9 Cloudy FEW006 BKN008 OVC010 55 50     83%     29.93 29.93      
Jul 01 06:56 W 15 10 Cloudy BKN007 OVC010 55 50     83%     29.93 29.93      
Jul 01 05:56 W 14 10 Cloudy OVC007 54 50     86%     29.93 29.93      
Jul 01 04:56 W 16 10 Cloudy OVC007 54 50     86%     29.92 29.92      
Jul 01 03:56 WSW 17 10 Cloudy OVC007 55 50     83%     29.92 29.91      
Jul 01 02:56   9 Cloudy OVC006 55 51     86%     29.92 29.92      
Jul 01 01:56   8 Cloudy OVC006 55 51     86%     29.93 29.93      
Jul 01 00:56   8 Cloudy OVC006 55 51     86%     29.94 29.93      
Jun 30 23:56   10 Mostly Cloudy BKN007 56 51     84%     29.95 29.94      
Jun 30 22:56 W 14 10 Mostly Cloudy FEW006 BKN010 56 50     80%     29.94 29.94      
Jun 30 21:56 W 15 10 Mostly Cloudy FEW006 BKN010 57 50     77%     29.94 29.94      
Jun 30 20:56   10 Mostly Cloudy FEW006 BKN010 57 50     77%     29.93 29.93      
Jun 30 19:56 W 11 10 Mostly Cloudy FEW007 SCT010 BKN014 58 50     75%     29.93 29.93      
Jun 30 19:15 W 15 10 Partly Cloudy FEW007 SCT010 SCT015 60 50     69%     29.93        
Jun 30 18:56   10 Mostly Cloudy FEW007 SCT010 BKN015 60 50     69%     29.93 29.93      
Jun 30 18:28 W 16 10 Mostly Cloudy FEW008 SCT010 BKN015 60 50     69%     29.94        
Jun 30 17:56   10 Partly Cloudy FEW008 SCT010 63 50     63%     29.93 29.93      
Jun 30 16:56 W 17 10 Mostly Clear FEW008 FEW010 64 51     63%     29.94 29.94      
Jun 30 15:56   10 Mostly Clear FEW008 FEW013 63 51     65%     29.96 29.96      
Jun 30 14:56   10 Partly Cloudy FEW008 SCT013 64 50     60%     29.98 29.97      
Jun 30 13:56   10 Mostly Cloudy FEW008 BKN013 64 50     60%     29.99 29.99      
Jun 30 12:56   10 Mostly Clear FEW008 65 50     58%     29.99 29.99      
Jun 30 11:56 W 15 10 Partly Cloudy FEW008 SCT013 61 50     67%     30 30      
Jun 30 11:13   10 Partly Cloudy FEW008 SCT013 SCT016 61 50     67%     30        
Jun 30 10:56 WSW 13 10 Mostly Cloudy FEW008 SCT013 BKN016 60 50     69%     30 30      
Jun 30 10:27 WSW 14 10 Mostly Cloudy FEW008 SCT013 BKN016 60 50     69%     30        
Jun 30 09:56 WNW 11 10 Mostly Cloudy FEW008 BKN013 BKN016 58 50     75%     30 30      
Jun 30 08:56 WSW 13 10 Mostly Cloudy FEW008 SCT012 BKN014 56 50     80%     30 30      
Jun 30 07:56 WSW 11 10 Cloudy FEW007 BKN010 OVC012 55 49     80%     29.99 29.99      
Jun 30 06:56 WSW 10 10 Cloudy FEW007 BKN009 OVC012 55 49     80%     29.99 29.99      
Jun 30 05:56 W 11 10 Cloudy OVC010 54 50     86%     29.98 29.98      
Jun 30 04:56 W 9 10 Cloudy OVC008 55 50     83%     29.98 29.98      
Jun 30 03:56 WSW 9 9 Cloudy OVC008 55 50     83%     29.98 29.98      
Jun 30 02:56 WSW 11 9 Cloudy OVC007 55 50     83%     29.98 29.98      
Jun 30 01:56 W 11 10 Cloudy OVC009 56 51     84%     29.99 29.98      
Jun 30 00:56 W 11 9 Cloudy OVC009 56 51     84%     29.99 29.98      
Jun 29 23:56 WSW 14 9 Mostly Cloudy BKN009 56 51     84%     30 30      
Jun 29 22:56 W 14 10 Cloudy OVC009 57 51     81%     30 30      
Jun 29 21:56 W 15 10 Cloudy FEW005 OVC007 57 51     81%     30 30      
Jun 29 20:56 W 18 10 Mostly Cloudy FEW004 BKN007 BKN010 57 51     81%     29.99 29.99      
Jun 29 20:17   9 Mostly Cloudy FEW004 BKN008 BKN010 57 51     81%     29.99        
Jun 29 19:56 W 24 9 Mostly Cloudy and Windy FEW004 SCT008 BKN010 58 51     78%     29.99 29.99      
Jun 29 18:56   10 Mostly Cloudy FEW004 SCT007 BKN010 59 51     75%     29.99 29.99      
Jun 29 17:56   10 Mostly Cloudy FEW004 SCT008 BKN010 61 51     70%     29.98 29.98      
Jun 29 16:56   10 Mostly Cloudy FEW004 SCT008 BKN012 63 51     65%     29.98 29.98      
Jun 29 15:56   10 Partly Cloudy FEW005 SCT008 64 51     63%     29.99 29.98      
Jun 29 14:56   10 Mostly Clear FEW005 64 51     63%     29.99 29.98      
Jun 29 13:56   10 Mostly Clear FEW010 66 51     59%     29.99 29.99      
Jun 29 12:56 WNW 20 10 Mostly Clear and Windy FEW010 64 51     63%     30 30      
Jun 29 11:56 WNW 15 10 Mostly Clear FEW010 65 51     61%     30 30      
Jun 29 10:56 W 14 10 Mostly Clear FEW010 63 50     63%     30.01 30      
Jun 29 10:02 W 13 10 Partly Cloudy FEW011 SCT014 61 50     67%     30        
Jun 29 09:56 W 11 10 Mostly Cloudy FEW011 BKN014 61 50     67%     30 30      
Jun 29 08:56 W 11 9 Cloudy FEW010 OVC013 58 50     75%     30 30      
Jun 29 07:56 WSW 13 9 Mostly Cloudy FEW010 BKN013 57 50     77%     29.98 29.98      
Jun 29 06:56 WSW 9 9 Clear   56 50     80%     29.97 29.97      
Jun 29 05:56 WSW 8 8 Mostly Cloudy BKN014 56 50     80%     29.96 29.96      
Jun 29 04:56 SW 9 9 Mostly Cloudy BKN014 56 50     80%     29.95 29.94      
Jun 29 03:56 W 8 9 Mostly Cloudy BKN012 57 50     77%     29.94 29.93      
Jun 29 02:56 W 6 8 Mostly Cloudy BKN011 57 51     81%     29.94 29.93      
Jun 29 01:56 SW 13 8 Mostly Cloudy BKN014 57 51     81%     29.94 29.93      
Jun 29 00:56 W 14 9 Mostly Cloudy BKN012 57 51     81%     29.94 29.94      
Jun 28 23:56 W 14 9 Mostly Cloudy BKN013 57 51     81%     29.95 29.95      
Jun 28 22:56 W 14 10 Mostly Cloudy FEW008 BKN013 58 51     78%     29.95 29.94      
Jun 28 21:56 W 14 10 Mostly Cloudy FEW008 BKN013 58 51     78%     29.94 29.94      
Jun 28 21:33 WSW 14 10 Mostly Cloudy FEW008 BKN013 58 51     78%     29.94        
Jun 28 20:56 W 14 10 Partly Cloudy FEW008 SCT014 58 51     78%     29.93 29.93      
Jun 28 19:56 W 13 10 Partly Cloudy FEW008 SCT010 59 51     75%     29.92 29.92      
Jun 28 18:56 W 17 10 Partly Cloudy FEW007 SCT010 61 51     70%     29.91 29.91      
Jun 28 17:56 WNW 13 10 Mostly Clear FEW004 62 51     67%     29.92 29.91      
Jun 28 16:56 W 17 10 Mostly Clear FEW006 64 51     63%     29.92 29.92      
Jun 28 15:56   10 Mostly Clear FEW005 65 51     61%     29.93 29.93      
Jun 28 14:56   10 Mostly Clear FEW005 64 51     63%     29.94 29.94      
Jun 28 13:56   10 Mostly Clear FEW009 65 51     61%     29.95 29.95      
Jun 28 12:56 W 14 10 Mostly Clear FEW009 65 52     63%     29.97 29.96      
Jun 28 11:56 WNW 14 10 Partly Cloudy FEW009 SCT011 63 52     67%     29.96 29.96      
Jun 28 11:20 WSW 13 10 Mostly Cloudy SCT009 BKN011 63 52     67%     29.96        
Jun 28 10:56 WSW 13 9 Mostly Cloudy BKN009 BKN011 61 52     72%     29.96 29.96      
Jun 28 09:56 W 11 10 Mostly Cloudy BKN009 BKN011 59 52     78%     29.96 29.96      
Jun 28 08:56 W 14 10 Cloudy BKN010 OVC012 59 52     78%     29.96 29.96      
Jun 28 07:56 W 11 10 Cloudy BKN010 OVC012 59 52     78%     29.95 29.95      
Jun 28 06:56 SW 11 10 Cloudy BKN009 OVC012 57 52     83%     29.94 29.94      
Jun 28 05:56 W 10 10 Cloudy FEW007 BKN009 OVC012 57 52     83%     29.93 29.93      
Jun 28 04:56 W 14 10 Cloudy FEW008 BKN010 OVC013 57 51     81%     29.92 29.92      
Jun 28 03:56 WSW 13 10 Cloudy FEW008 BKN010 OVC012 57 51     81%     29.92 29.91      
Jun 28 02:56 W 13 10 Cloudy FEW008 BKN010 OVC012 57 51     81%     29.92 29.92      
Jun 28 01:56 W 14 10 Cloudy FEW008 OVC011 58 51     78%     29.93 29.93      
Jun 28 00:56 W 13 10 Cloudy FEW008 OVC011 58 51     78%     29.95 29.95      
Jun 27 23:56 W 11 10 Cloudy FEW008 BKN012 OVC014 59 52     78%     29.95 29.95      
Jun 27 22:56 W 15 10 Cloudy FEW008 BKN011 OVC014 59 52     78%     29.96 29.96      
Jun 27 21:56 W 15 10 Cloudy FEW008 OVC012 59 51     75%     29.95 29.95      
Jun 27 20:56 W 16 10 Mostly Cloudy FEW008 BKN012 59 52     78%     29.94 29.94      
Jun 27 19:56 W 18 10 Mostly Cloudy FEW009 BKN011 60 52     75%     29.94 29.93      
Jun 27 18:56 W 16 10 Mostly Cloudy SCT008 BKN012 BKN027 60 52     75%     29.94 29.94      
Jun 27 17:56   10 Mostly Cloudy SCT007 BKN012 BKN027 61 53     75%     29.94 29.94      
Jun 27 17:41 W 15 10 Mostly Cloudy FEW007 BKN013 BKN027 61 52     72%     29.95        
Jun 27 17:12   10 Mostly Cloudy FEW007 SCT013 BKN027 63 52     67%     29.95        
Jun 27 16:56   10 Partly Cloudy FEW007 SCT014 SCT027 64 53     67%     29.95 29.95      
Jun 27 15:56   10 Mostly Cloudy FEW007 SCT012 BKN030 66 53     63%     29.96 29.96      
Jun 27 14:56   10 Mostly Cloudy FEW007 BKN012 BKN027 65 53     65%     29.98 29.97      
Jun 27 13:56 W 20 10 Mostly Cloudy and Windy FEW010 BKN013 64 53     67%     29.98 29.98      
Jun 27 12:56 W 16 10 Mostly Cloudy FEW010 BKN013 64 53     67%     29.98 29.98      
Jun 27 11:56   10 Mostly Cloudy FEW009 BKN011 63 53     70%     29.99 29.99      
Jun 27 10:56   10 Mostly Cloudy FEW009 BKN012 63 53     70%     29.99 29.98      
Jun 27 09:56 W 15 10 Mostly Cloudy FEW007 BKN009 60 54     80%     29.99 29.99      
Jun 27 08:56 W 13 9 Cloudy BKN007 OVC011 58 54     87%     29.99 29.99      
Jun 27 07:56 W 16 7 Cloudy BKN007 OVC011 58 55     90%     29.99 29.98      
Jun 27 06:56 W 15 3 Fog/Mist BKN007 OVC011 58 55     90%     29.98 29.98      
Jun 27 05:56 W 15 9 Cloudy OVC009 58 54     87%     29.97 29.97      
Jun 27 04:56 W 17 10 Cloudy OVC006 58 54     87%     29.97 29.97      
Jun 27 03:56 W 15 10 Cloudy OVC006 58 54     87%     29.97 29.97      
Jun 27 02:56 W 10 10 Cloudy OVC007 58 54     87%     29.98 29.98      
Jun 27 01:56 W 15 10 Cloudy OVC009 60 54     80%     29.98 29.98      
Jun 27 00:56 W 16 10 Cloudy OVC010 60 54     80%     30 30      
Jun 26 23:56 W 11 10 Cloudy OVC012 61 54     78%     30 30      
Jun 26 22:56 W 16 10 Cloudy FEW010 OVC012 61 54     78%     30 30      
Jun 26 22:46   10 Cloudy FEW010 OVC012 61 54     78%     30.01        
Jun 26 21:56 W 14 10 Partly Cloudy FEW008 SCT013 SCT015 61 54     78%     30 30      
Jun 26 21:26 W 14 10 Partly Cloudy FEW008 SCT013 SCT015 62 54     75%     30        
Jun 26 20:56 W 17 10 Mostly Cloudy FEW008 BKN012 BKN015 61 54     78%     30 29.99      
Jun 26 20:26   10 Mostly Cloudy FEW009 SCT013 BKN015 62 54     75%     30        
Jun 26 19:56 W 20 10 Partly Cloudy and Windy FEW009 SCT015 63 54     72%     29.99 29.99      
Jun 26 18:56 W 16 10 Mostly Clear FEW015 66 55     68%     29.99 29.99      
Jun 26 17:56 W 20 10 Mostly Clear and Windy FEW021 68 54     61%     29.99 29.99      
Jun 26 16:56 W 21 10 Mostly Clear and Windy FEW021 70 53     55%     30.01 30.01      
Jun 26 15:56 WNW 21 10 Mostly Clear and Windy FEW018 71 53     53%   70 30.02 30.02      
Jun 26 14:56 W 18 10 Mostly Clear FEW018 72 54     53%   71 30.03 30.03      
Jun 26 13:56   10 Clear CLR 71 53     53%   70 30.04 30.03      
Jun 26 12:56 W 17 10 Mostly Clear FEW025 71 53     53%   70 30.04 30.04      
Jun 26 11:56 W 17 10 Partly Cloudy FEW009 SCT025 69 53     57%     30.05 30.05      
Jun 26 10:56 W 13 10 Mostly Cloudy FEW009 BKN025 68 53     59%     30.06 30.05      
Jun 26 09:56 WNW 13 10 Mostly Cloudy FEW008 BKN024 66 53     63%     30.05 30.04      
Jun 26 08:56 W 10 10 Mostly Cloudy FEW008 BKN023 66 52     61%     30.04 30.03      
Jun 26 07:56 WNW 11 10 Mostly Cloudy FEW008 BKN022 64 53     67%     30.03 30.03      
Jun 26 06:56 WSW 6 10 Mostly Cloudy FEW008 BKN024 61 53     75%     30.02 30.02      
Jun 26 05:56 W 6 10 Mostly Cloudy FEW022 BKN025 60 53     78%     30.02 30.01      
Jun 26 04:56 W 6 10 Mostly Cloudy BKN022 60 53     78%     30.01 30.01      
Jun 26 03:56 W 6 10 Cloudy OVC018 60 53     78%     30.01 30.01      
Jun 26 03:27 W 7 10 Cloudy OVC015 60 53     78%     30.02        
Jun 26 02:56 W 10 10 Cloudy OVC014 60 53     78%     30.02 30.02      
Jun 26 01:56 W 10 10 Cloudy OVC014 60 53     78%     30.02 30.02      
Jun 26 00:56 W 7 10 Mostly Cloudy BKN014 60 53     78%     30.02 30.02      
Jun 26 00:20 W 9 10 Mostly Cloudy BKN014 60 53     78%     30.03        
Jun 25 23:56 W 11 10 Mostly Clear FEW014 60 52     75%     30.03 30.02      
Jun 25 22:56 W 9 10 Mostly Clear FEW020 59 52     78%     30.02 30.02      
Jun 25 21:56 W 11 10 Mostly Clear FEW020 60 52     75%     30 30      
Jun 25 21:37 W 13 10 Clear   60 52     75%     30        
Jun 25 20:56   10 Clear   60 52     75%     30 30      
Jun 25 19:56 W 15 10 Mostly Cloudy BKN015 61 52     72%     29.99 29.99      
Jun 25 18:56   10 Mostly Cloudy FEW015 BKN025 62 52     70%     29.99 29.99      
Jun 25 17:56   10 Partly Cloudy SCT035 64 52     65%     29.98 29.98      
Jun 25 16:56   10 Mostly Clear FEW035 66 52     61%     29.99 29.99      
Jun 25 15:56   10 Mostly Clear FEW040 67 52     59%     30 30      
Jun 25 14:56   10 Mostly Clear FEW040 67 52     59%     30.01 30.01      
Jun 25 13:56   10 Mostly Clear FEW008 67 53     61%     30.02 30.01      
Jun 25 12:56   10 Partly Cloudy FEW008 SCT016 66 52     61%     30.02 30.02      
Jun 25 12:36   10 Partly Cloudy FEW008 SCT016 66 53     63%     30.02        
Jun 25 11:56 W 17 10 Mostly Cloudy FEW007 SCT012 BKN016 65 53     65%     30.02 30.02      
Jun 25 10:56   10 Mostly Cloudy FEW008 SCT012 BKN014 63 53     70%     30.02 30.02      
Jun 25 09:56 W 15 10 Mostly Cloudy FEW008 BKN013 BKN016 62 53     72%     30.01 30.01      
Jun 25 08:56 WNW 13 10 Mostly Cloudy FEW008 BKN010 BKN015 60 53     78%     30.01 30.01      
Jun 25 07:56 WSW 8 10 Cloudy SCT008 BKN010 OVC013 58 53     84%     30 29.99      
Jun 25 06:56 W 10 10 Cloudy SCT008 BKN010 OVC014 58 53     84%     29.98 29.98      
Jun 25 06:17 W 8 9 Cloudy SCT008 BKN010 OVC014 57 53     87%     29.98        
Jun 25 05:56 W 11 10 Cloudy OVC008 57 53     87%     29.98 29.97      
Jun 25 04:56 WSW 6 10 Cloudy FEW006 BKN008 OVC013 57 53     87%     29.96 29.96      
Jun 25 03:56 W 10 10 Cloudy OVC007 57 53     87%     29.95 29.95      
Jun 25 02:56 W 9 10 Cloudy OVC008 58 53     84%     29.95 29.94      
Jun 25 01:56 W 14 10 Cloudy OVC008 58 54     87%     29.94 29.94      
Jun 25 00:56   10 Cloudy OVC006 58 54     87%     29.94 29.94      
Jun 24 23:56   10 Cloudy OVC005 58 54     87%     29.95 29.95      
Jun 24 23:35   10 Cloudy OVC006 58 54     87%     29.95        
Jun 24 23:10   10 Cloudy OVC004 58 54     87%     29.95        
Jun 24 22:56   10 Cloudy FEW003 OVC005 58 54     87%     29.95 29.95      
Jun 24 21:56   10 Mostly Cloudy FEW003 BKN006 58 54     87%     29.95 29.95      
Jun 24 20:56   10 Mostly Cloudy FEW003 SCT006 BKN150 58 54     87%     29.94 29.94      
Jun 24 19:56   10 Mostly Cloudy FEW003 SCT007 BKN150 BKN200 59 54     83%     29.94 29.94      
Jun 24 18:56   10 Mostly Cloudy FEW003 SCT150 BKN200 61 53     75%     29.92 29.92      
Notice The following observation data may not be complete
Jun 24 17:56   10 Mostly Cloudy FEW004 SCT150 BKN200          %              
Jun 24 16:56   10 Mostly Cloudy FEW004 SCT150 BKN200 65 53     65%     29.93 29.93      
Jun 24 15:56   10 Mostly Cloudy FEW004 SCT180 BKN200 67 53     61%     29.92 29.92      
Jun 24 14:56   10 Mostly Cloudy FEW006 SCT180 BKN200 68 54     61%     29.94 29.94      
Jun 24 13:56   10 Mostly Cloudy FEW007 SCT180 BKN200 67 54     63%     29.94 29.94      
Jun 24 12:56 WNW 17 10 Mostly Cloudy FEW009 BKN200 67 54     63%     29.95 29.95      
Jun 24 11:56 WNW 17 10 Partly Cloudy FEW008 SCT200 67 54     63%     29.95 29.95      
Jun 12 03:56 W 15 10 Mostly Clear FEW012 53 48     83%     30.02 30.02      
Jun 11 22:56 W 11 10 Clear CLR 55 49     80%     30.01 30.01      
Jun 11 08:56   10 Mostly Clear FEW022 58 44     60%     29.95 29.95      
Jun 10 16:56 W 17 10 Mostly Clear FEW020 FEW033 65 46     50%     29.96 29.96      
Jun 09 23:56 W 15 10 Mostly Clear FEW013 56 50     80%     30 29.99      
Jun 09 19:56 W 15 10 Mostly Clear FEW021 59 49     69%     29.97 29.97      
Jun 09 09:23 W 15 10 Cloudy SCT007 BKN018 OVC039 58 51     78%     29.97        
Jun 09 02:56 W 6 10 Mostly Cloudy FEW011 SCT041 BKN090 60 55     83%     29.96 29.95      
Jun 08 16:56 SSW 7 10 Cloudy BKN018 OVC025 66 57     73%     30 29.99     0
Jun 08 08:56 SSE 9 10 Cloudy FEW014 SCT024 OVC034 60 52     75%     29.99 29.98 0    
Jun 08 06:56 SSE 14 10 Cloudy FEW014 OVC043 61 51     70%     29.95 29.95      
Jun 08 03:56 S 9 10 Cloudy FEW055 BKN075 OVC100 60 49     67%     29.94 29.93      
Jun 07 21:56 SSW 5 10 Cloudy FEW013 SCT110 OVC150 61 44     54%     29.94 29.94      
Jun 06 07:56 WNW 7 10 Mostly Clear FEW008 57 49     74%     29.94 29.94